WXM80 ListenWXM80 Stop

You find our weather info also at:

UK Metoffice

WeatherCloud

Weather Underground

Northeastern Weather Network

AWEKAS

Citizen Weather Observer Program (CWOP)

HAMweather, WeatherForYou, PWS Weather


Weather Underground History page Text

Daily Summary for January 27, 2017 Units:  Metric    English   Both
« Previous Day
Next Day »
Daily Weekly Monthly Yearly Custom
  High: Low: Average:
Temperature: 6.7 °C 3.3 °C 5.1 °C
Dew Point: 0.1 °C -3.8 °C -1.6 °C
Humidity: 70 % 47 % 63 %
Wind Speed: 20 km/h 2.4 km/h 11.1 km/h
Wind Gust: 37 km/h - -
Wind:- - WSW
Pressure: 1002.9 hPa 999.5 hPa -
Precipitation: 0 mm    
Historical Graphs
 
 
Tabular Data for January 27, 2017
Time Temperature Dew Point Pressure Wind Wind Speed Wind Gust Humidity Rainfall Rate (Hourly)
00:03 5.6 °C -0.1 °C 999.5 hPa WSW 14.5 km/h 22.5 km/h 67 % 0 mm
00:08 5.6 °C -0.1 °C 999.5 hPa WNW 16.7 km/h 31.5 km/h 67 % 0 mm
00:13 5.6 °C -0.1 °C 999.5 hPa WSW 15.9 km/h 25.9 km/h 67 % 0 mm
00:18 5.6 °C -0.1 °C 999.5 hPa NW 11.3 km/h 25.9 km/h 67 % 0 mm
00:23 5.6 °C -0.3 °C 999.5 hPa West 9.8 km/h 18.5 km/h 66 % 0 mm
00:28 5.6 °C -0.3 °C 999.9 hPa WSW 11.9 km/h 19.3 km/h 66 % 0 mm
00:33 5.6 °C -0.3 °C 999.9 hPa West 10.9 km/h 22.2 km/h 66 % 0 mm
00:38 5.5 °C -0.3 °C 999.9 hPa West 14.3 km/h 29.6 km/h 66 % 0 mm
00:49 5.5 °C -0.3 °C 999.9 hPa West 10 km/h 18.5 km/h 66 % 0 mm
00:54 5.4 °C -0.4 °C 999.9 hPa West 14.5 km/h 25.7 km/h 66 % 0 mm
00:59 5.4 °C -0.4 °C 1000.2 hPa WSW 6.1 km/h 18.5 km/h 66 % 0 mm
01:04 5.5 °C -0.3 °C 1000.6 hPa WNW 10 km/h 16.7 km/h 66 % 0 mm
01:09 5.5 °C -0.3 °C 1000.2 hPa West 9 km/h 24.1 km/h 66 % 0 mm
01:14 5.6 °C -0.3 °C 1000.6 hPa WSW 11.6 km/h 18.5 km/h 66 % 0 mm
01:19 5.6 °C -0.4 °C 1000.6 hPa WSW 9.7 km/h 14.8 km/h 65 % 0 mm
01:24 5.7 °C -0.4 °C 1000.6 hPa WSW 10.8 km/h 17.7 km/h 65 % 0 mm
01:29 5.7 °C -0.2 °C 1000.6 hPa WSW 11.3 km/h 16.7 km/h 66 % 0 mm
01:34 5.7 °C -0.2 °C 1000.6 hPa WSW 8 km/h 17.7 km/h 66 % 0 mm
01:39 5.7 °C -0.2 °C 1000.6 hPa West 11.3 km/h 16.7 km/h 66 % 0 mm
01:44 5.6 °C -0.3 °C 1000.6 hPa West 9.8 km/h 22.2 km/h 66 % 0 mm
01:49 5.5 °C -0.6 °C 1000.6 hPa WSW 12.6 km/h 20.9 km/h 65 % 0 mm
01:55 5.4 °C -0.7 °C 1000.6 hPa WSW 10.6 km/h 20.9 km/h 65 % 0 mm
02:00 5.3 °C -0.7 °C 1000.6 hPa WSW 10.8 km/h 16.7 km/h 65 % 0 mm
02:05 5.2 °C -0.6 °C 1000.6 hPa SW 10.3 km/h 14.5 km/h 66 % 0 mm
02:10 5.2 °C -0.7 °C 1000.6 hPa SW 4.7 km/h 16.7 km/h 66 % 0 mm
02:15 5.1 °C -0.7 °C 1000.6 hPa West 13.4 km/h 24.1 km/h 66 % 0 mm
02:20 5.1 °C -0.5 °C 1000.9 hPa WSW 6.6 km/h 13 km/h 67 % 0 mm
02:25 5.1 °C -0.6 °C 1000.9 hPa WSW 7.1 km/h 20.9 km/h 67 % 0 mm
02:30 5.1 °C -0.6 °C 1000.9 hPa WSW 14.5 km/h 24.1 km/h 67 % 0 mm
02:35 5.1 °C -0.6 °C 1000.9 hPa West 8.7 km/h 20.4 km/h 67 % 0 mm
02:40 5.1 °C -0.6 °C 1000.9 hPa SW 15.3 km/h 22.2 km/h 67 % 0 mm
02:45 5 °C -0.6 °C 1000.6 hPa West 13.2 km/h 18.5 km/h 67 % 0 mm
02:50 5 °C -0.6 °C 1000.9 hPa WSW 13.4 km/h 18.5 km/h 67 % 0 mm
02:55 5 °C -0.6 °C 1000.9 hPa SW 10.6 km/h 18.5 km/h 67 % 0 mm
03:00 5 °C -0.6 °C 1000.9 hPa WSW 7.9 km/h 18.5 km/h 67 % 0 mm
03:06 4.9 °C -0.7 °C 1000.9 hPa SW 8.7 km/h 22.2 km/h 67 % 0 mm
03:11 4.9 °C -0.7 °C 1000.9 hPa SW 9.5 km/h 14.8 km/h 67 % 0 mm
03:16 4.9 °C -0.7 °C 1000.9 hPa SSW 10 km/h 31.5 km/h 67 % 0 mm
03:21 4.9 °C -0.7 °C 1000.9 hPa WSW 13.2 km/h 22.2 km/h 67 % 0 mm
03:26 4.9 °C -0.7 °C 1001.2 hPa West 10.9 km/h 27.8 km/h 67 % 0 mm
03:31 4.9 °C -0.5 °C 1000.9 hPa SW 8.4 km/h 14.8 km/h 68 % 0 mm
03:36 4.9 °C -0.7 °C 1000.9 hPa WSW 10.8 km/h 18.5 km/h 67 % 0 mm
03:41 4.9 °C -0.7 °C 1001.2 hPa WSW 8.2 km/h 18.5 km/h 67 % 0 mm
03:46 4.9 °C -0.7 °C 1000.9 hPa WSW 14.2 km/h 16.7 km/h 67 % 0 mm
03:51 4.8 °C -0.6 °C 1000.9 hPa WSW 12.6 km/h 14.8 km/h 68 % 0 mm
03:56 4.8 °C -0.6 °C 1001.2 hPa WSW 9.8 km/h 22.5 km/h 68 % 0 mm
04:01 4.8 °C -0.6 °C 1001.2 hPa WSW 7.1 km/h 9.7 km/h 68 % 0 mm
04:07 4.8 °C -0.6 °C 1001.2 hPa West 11.7 km/h 14.8 km/h 68 % 0 mm
04:12 4.8 °C -0.6 °C 1001.2 hPa WSW 8.2 km/h 13 km/h 68 % 0 mm
04:17 4.8 °C -0.6 °C 1001.2 hPa SW 8.4 km/h 12.9 km/h 68 % 0 mm
04:22 4.8 °C -0.6 °C 1001.2 hPa SSW 12.1 km/h 16.7 km/h 68 % 0 mm
04:27 4.8 °C -0.6 °C 1001.2 hPa SW 12.9 km/h 24.1 km/h 68 % 0 mm
04:32 4.8 °C -0.6 °C 1001.2 hPa WSW 8.7 km/h 18.5 km/h 68 % 0 mm
04:35 4.9 °C -0.5 °C 1001.2 hPa SW 9 km/h 20.4 km/h 68 % 0 mm
04:40 5 °C -0.4 °C 1001.6 hPa West 11.6 km/h 16.7 km/h 68 % 0 mm
04:45 5.1 °C -0.4 °C 1001.6 hPa WSW 15.3 km/h 31.5 km/h 68 % 0 mm
04:51 5.2 °C -0.1 °C 1001.6 hPa WNW 7.2 km/h 16.7 km/h 69 % 0 mm
04:56 5.2 °C 0 °C 1001.6 hPa WNW 10.1 km/h 11.1 km/h 69 % 0 mm
05:01 5.2 °C 0 °C 1001.6 hPa West 12.1 km/h 25.9 km/h 69 % 0 mm
05:06 5.2 °C 0 °C 1001.2 hPa WSW 13.8 km/h 22.2 km/h 69 % 0 mm
05:07 5.2 °C 0 °C 1001.2 hPa WSW 15.6 km/h 32.2 km/h 69 % 0 mm
05:12 5.2 °C 0 °C 1001.6 hPa WSW 18.7 km/h 27.8 km/h 69 % 0 mm
05:17 5.2 °C -0.1 °C 1001.2 hPa West 9.5 km/h 22.2 km/h 69 % 0 mm
05:22 5.1 °C -0.1 °C 1001.2 hPa SW 14.3 km/h 22.2 km/h 69 % 0 mm
05:27 5.1 °C -0.2 °C 1001.2 hPa West 10.5 km/h 18.5 km/h 69 % 0 mm
05:32 5.1 °C 0.1 °C 1001.6 hPa SW 15.4 km/h 25.9 km/h 70 % 0 mm
05:37 5.1 °C 0.1 °C 1001.2 hPa WNW 10.6 km/h 18.5 km/h 70 % 0 mm
05:42 5.1 °C -0.1 °C 1001.6 hPa West 9.5 km/h 13 km/h 69 % 0 mm
05:47 5.1 °C -0.1 °C 1001.6 hPa WNW 10 km/h 25.9 km/h 69 % 0 mm
05:52 5.1 °C -0.1 °C 1001.6 hPa South 5.8 km/h 12.9 km/h 69 % 0 mm
05:57 5 °C -0.4 °C 1001.2 hPa WSW 10.9 km/h 16.7 km/h 68 % 0 mm
06:02 4.9 °C -0.7 °C 1001.2 hPa West 7.9 km/h 24.1 km/h 67 % 0 mm
06:07 4.9 °C -0.9 °C 1001.2 hPa SSW 8.2 km/h 18.5 km/h 66 % 0 mm
06:12 4.8 °C -1 °C 1001.6 hPa West 4.5 km/h 16.7 km/h 66 % 0 mm
06:18 4.8 °C -1 °C 1001.6 hPa SW 10.9 km/h 18.5 km/h 66 % 0 mm
06:23 4.8 °C -1.1 °C 1001.6 hPa WSW 13.7 km/h 19.3 km/h 66 % 0 mm
06:28 4.8 °C -1.3 °C 1001.6 hPa SW 10.1 km/h 24.1 km/h 65 % 0 mm
06:33 4.8 °C -1.3 °C 1001.6 hPa WSW 8 km/h 14.8 km/h 65 % 0 mm
06:38 4.7 °C -1.3 °C 1001.6 hPa WSW 10.8 km/h 22.2 km/h 65 % 0 mm
06:43 4.7 °C -1.3 °C 1001.6 hPa WSW 6.6 km/h 14.8 km/h 65 % 0 mm
06:48 4.7 °C -1.3 °C 1001.6 hPa West 11.9 km/h 16.7 km/h 65 % 0 mm
06:53 4.7 °C -1.3 °C 1001.6 hPa SW 15.6 km/h 24.1 km/h 65 % 0 mm
06:58 4.7 °C -1.3 °C 1001.6 hPa WSW 10.6 km/h 16.1 km/h 65 % 0 mm
07:03 4.7 °C -1.3 °C 1001.9 hPa WSW 9.7 km/h 20.9 km/h 65 % 0 mm
07:08 4.7 °C -1.2 °C 1001.9 hPa SW 14.3 km/h 18.5 km/h 66 % 0 mm
07:14 4.7 °C -1.2 °C 1001.9 hPa WSW 14.5 km/h 22.5 km/h 66 % 0 mm
07:19 4.6 °C -1.2 °C 1001.9 hPa WSW 16.1 km/h 24.1 km/h 66 % 0 mm
07:24 4.6 °C -0.9 °C 1001.9 hPa SW 9.7 km/h 20.9 km/h 67 % 0 mm
07:29 4.7 °C -0.9 °C 1001.9 hPa SW 9.7 km/h 25.7 km/h 67 % 0 mm
07:34 4.7 °C -0.9 °C 1002.3 hPa West 10.9 km/h 20.4 km/h 67 % 0 mm
07:39 4.8 °C -0.8 °C 1002.3 hPa WSW 12.9 km/h 19.3 km/h 67 % 0 mm
07:44 4.9 °C -0.9 °C 1002.3 hPa WSW 12.9 km/h 25.7 km/h 66 % 0 mm
07:49 5 °C -0.8 °C 1002.3 hPa WSW 16.1 km/h 27.4 km/h 66 % 0 mm
07:54 5.1 °C -0.8 °C 1002.3 hPa WSW 14.5 km/h 24.1 km/h 66 % 0 mm
07:59 5.1 °C -0.9 °C 1002.3 hPa WSW 13 km/h 20.4 km/h 65 % 0 mm
08:04 5.2 °C -1.1 °C 1002.3 hPa SW 9.3 km/h 27.8 km/h 64 % 0 mm
08:09 5.2 °C -0.9 °C 1002.3 hPa WSW 10.6 km/h 14.8 km/h 65 % 0 mm
08:14 5.2 °C -0.8 °C 1002.3 hPa WSW 10.9 km/h 18.5 km/h 65 % 0 mm
08:19 5.2 °C -0.8 °C 1002.3 hPa SW 9.8 km/h 16.7 km/h 65 % 0 mm
08:24 5.2 °C -0.8 °C 1002.3 hPa WNW 15.9 km/h 24.1 km/h 65 % 0 mm
08:29 5.2 °C -0.8 °C 1002.3 hPa WSW 12.4 km/h 18.5 km/h 65 % 0 mm
08:34 5.2 °C -0.8 °C 1002.6 hPa West 12.9 km/h 18.5 km/h 65 % 0 mm
08:39 5.2 °C -0.8 °C 1002.6 hPa West 10.8 km/h 29.6 km/h 65 % 0 mm
08:44 5.3 °C -1 °C 1002.6 hPa WSW 13 km/h 29.6 km/h 64 % 0 mm
08:49 5.3 °C -0.8 °C 1002.6 hPa West 13.5 km/h 25.7 km/h 65 % 0 mm
08:51 5.3 °C -0.8 °C 1002.6 hPa West 14.8 km/h 25.9 km/h 65 % 0 mm
08:56 5.3 °C -1 °C 1002.6 hPa West 9.3 km/h 22.2 km/h 64 % 0 mm
09:01 5.3 °C -1 °C 1002.6 hPa West 11.6 km/h 22.2 km/h 64 % 0 mm
09:06 5.3 °C -0.9 °C 1002.6 hPa WSW 15.3 km/h 22.2 km/h 64 % 0 mm
09:11 5.3 °C -1 °C 1002.6 hPa WNW 14.3 km/h 37 km/h 64 % 0 mm
09:16 5.3 °C -0.9 °C 1002.6 hPa NW 4.2 km/h 18.5 km/h 64 % 0 mm
09:21 5.3 °C -0.9 °C 1002.9 hPa WSW 7.4 km/h 18.5 km/h 64 % 0 mm
09:26 5.4 °C -0.9 °C 1002.9 hPa WNW 8.9 km/h 33.3 km/h 64 % 0 mm
09:31 5.4 °C -1.1 °C 1002.9 hPa WSW 6.8 km/h 18.5 km/h 63 % 0 mm
09:36 5.4 °C -0.8 °C 1002.6 hPa West 15.6 km/h 29.6 km/h 64 % 0 mm
09:41 5.4 °C -1.1 °C 1002.6 hPa West 12.2 km/h 25.9 km/h 63 % 0 mm
09:46 5.4 °C -1.3 °C 1002.6 hPa WNW 14.2 km/h 22.5 km/h 62 % 0 mm
09:51 5.4 °C -1.1 °C 1002.6 hPa WSW 6.8 km/h 31.5 km/h 63 % 0 mm
09:56 5.4 °C -1.1 °C 1002.9 hPa West 9.2 km/h 25.9 km/h 63 % 0 mm
10:01 5.6 °C -0.7 °C 1002.9 hPa West 10 km/h 14.8 km/h 64 % 0 mm
10:07 5.9 °C -0.6 °C 1002.9 hPa WSW 13.2 km/h 27.8 km/h 63 % 0 mm
10:12 6.2 °C -0.8 °C 1002.6 hPa SSW 11.4 km/h 25.9 km/h 61 % 0 mm
10:17 6.4 °C -0.8 °C 1002.6 hPa West 13.5 km/h 22.2 km/h 60 % 0 mm
10:22 6.6 °C -0.7 °C 1002.6 hPa WSW 12.6 km/h 24.1 km/h 60 % 0 mm
10:27 6.6 °C -0.8 °C 1002.6 hPa WSW 15.1 km/h 31.5 km/h 59 % 0 mm
10:32 6.6 °C -0.8 °C 1002.6 hPa West 10.1 km/h 29.6 km/h 59 % 0 mm
10:37 6.3 °C -1.1 °C 1002.6 hPa WSW 16.6 km/h 31.5 km/h 59 % 0 mm
10:42 6.2 °C -1.5 °C 1002.6 hPa SW 11.1 km/h 22.2 km/h 58 % 0 mm
10:47 6.1 °C -1.6 °C 1002.6 hPa West 17.9 km/h 22.5 km/h 58 % 0 mm
10:52 6.1 °C -1.6 °C 1002.6 hPa SW 16.7 km/h 25.9 km/h 58 % 0 mm
10:57 6.1 °C -1.6 °C 1002.6 hPa WSW 17.1 km/h 33.3 km/h 58 % 0 mm
11:02 5.9 °C -1.2 °C 1002.3 hPa West 11.4 km/h 18.5 km/h 60 % 0 mm
11:07 5.9 °C -1.2 °C 1002.3 hPa WSW 16.4 km/h 25.9 km/h 60 % 0 mm
11:12 6 °C -1.2 °C 1002.3 hPa WSW 12.7 km/h 16.1 km/h 60 % 0 mm
11:17 6.2 °C -1.5 °C 1001.9 hPa WSW 14.3 km/h 29 km/h 58 % 0 mm
11:22 6.3 °C -1.6 °C 1001.9 hPa WSW 11.3 km/h 25.9 km/h 57 % 0 mm
11:27 6.4 °C -2.3 °C 1001.9 hPa WNW 8.9 km/h 24.1 km/h 54 % 0 mm
11:32 6.4 °C -2.2 °C 1001.9 hPa West 13 km/h 18.5 km/h 54 % 0 mm
11:38 6.4 °C -2 °C 1001.6 hPa West 10.9 km/h 18.5 km/h 55 % 0 mm
11:43 6.3 °C -2.1 °C 1001.6 hPa West 10.3 km/h 16.7 km/h 55 % 0 mm
11:48 6.2 °C -1.9 °C 1001.6 hPa West 9 km/h 24.1 km/h 56 % 0 mm
11:53 6.2 °C -1.7 °C 1001.6 hPa West 20 km/h 31.5 km/h 57 % 0 mm
11:58 6.1 °C -1.8 °C 1001.2 hPa West 15 km/h 29.6 km/h 57 % 0 mm
12:03 6.1 °C -1.6 °C 1001.2 hPa WSW 7.1 km/h 14.5 km/h 58 % 0 mm
12:08 6.1 °C -1.6 °C 1001.2 hPa North 7.6 km/h 19.3 km/h 58 % 0 mm
12:13 6.1 °C -2 °C 1001.2 hPa SW 7.2 km/h 18.5 km/h 56 % 0 mm
12:18 6.1 °C -2 °C 1000.9 hPa SSW 6.8 km/h 11.3 km/h 56 % 0 mm
12:23 6.1 °C -2.6 °C 1000.9 hPa NW 12.6 km/h 22.2 km/h 54 % 0 mm
12:28 6.1 °C -2.8 °C 1000.9 hPa West 18.3 km/h 24.1 km/h 53 % 0 mm
12:33 6 °C -2.6 °C 1000.9 hPa West 6.9 km/h 22.2 km/h 54 % 0 mm
12:38 5.9 °C -2.7 °C 1000.9 hPa West 13.4 km/h 32.2 km/h 54 % 0 mm
12:43 5.9 °C -3.2 °C 1000.6 hPa West 15.4 km/h 22.2 km/h 52 % 0 mm
12:48 5.9 °C -3.2 °C 1000.6 hPa WNW 11.3 km/h 29.6 km/h 52 % 0 mm
12:54 5.9 °C -3.4 °C 1000.6 hPa WNW 10.8 km/h 18.5 km/h 51 % 0 mm
12:59 5.9 °C -3.2 °C 1000.6 hPa West 8.5 km/h 16.1 km/h 52 % 0 mm
13:04 5.9 °C -3.4 °C 1000.2 hPa West 12.9 km/h 25.7 km/h 51 % 0 mm
13:09 6 °C -3.1 °C 1000.2 hPa West 11.4 km/h 11.4 km/h 52 % 0 mm
13:14 6.3 °C -3.4 °C 1000.2 hPa West 11.3 km/h 24.1 km/h 50 % 0 mm
13:19 6.6 °C -3.2 °C 1000.2 hPa West 12.9 km/h 22.5 km/h 50 % 0 mm
13:24 6.7 °C -3.8 °C 999.9 hPa WSW 17.1 km/h 33.8 km/h 47 % 0 mm
13:29 6.6 °C -3.6 °C 1000.2 hPa WNW 14.5 km/h 25.7 km/h 48 % 0 mm
13:34 6.5 °C -3.7 °C 1000.2 hPa WNW 11.3 km/h 22.5 km/h 48 % 0 mm
13:39 6.4 °C -3.2 °C 999.9 hPa WNW 13.5 km/h 20.4 km/h 50 % 0 mm
13:44 6.3 °C -2.8 °C 999.9 hPa West 8 km/h 27.4 km/h 52 % 0 mm
13:49 6.3 °C -2.8 °C 999.9 hPa West 4.8 km/h 20.9 km/h 52 % 0 mm
13:54 6.3 °C -2.6 °C 999.9 hPa SW 5 km/h 14.8 km/h 53 % 0 mm
13:59 6.2 °C -2.7 °C 999.9 hPa WSW 6.6 km/h 13 km/h 53 % 0 mm
14:04 6.2 °C -2.9 °C 999.9 hPa WNW 6.9 km/h 18.5 km/h 52 % 0 mm
14:09 6.2 °C -2.9 °C 999.5 hPa WSW 12.7 km/h 24.1 km/h 52 % 0 mm
14:14 6.2 °C -2.9 °C 999.5 hPa WNW 12.2 km/h 20.4 km/h 52 % 0 mm
14:19 6.1 °C -3 °C 999.5 hPa WSW 8.7 km/h 25.7 km/h 52 % 0 mm
14:24 6.1 °C -2.8 °C 999.5 hPa WNW 8.4 km/h 14.8 km/h 53 % 0 mm
14:29 6.1 °C -3.1 °C 999.5 hPa West 11.4 km/h 27.8 km/h 52 % 0 mm
14:35 6 °C -2.9 °C 999.5 hPa WSW 7.4 km/h 20.4 km/h 53 % 0 mm
14:40 6 °C -3.1 °C 999.5 hPa SW 7.6 km/h 14.8 km/h 52 % 0 mm
14:45 5.9 °C -2.9 °C 999.5 hPa WSW 10.3 km/h 20.4 km/h 53 % 0 mm
14:50 5.9 °C -3 °C 999.5 hPa NW 10.1 km/h 14.8 km/h 53 % 0 mm
14:55 5.9 °C -3 °C 999.5 hPa West 7.2 km/h 16.7 km/h 53 % 0 mm
15:00 5.8 °C -3.3 °C 999.5 hPa WNW 6.9 km/h 16.1 km/h 52 % 0 mm
15:05 5.8 °C -3.3 °C 999.5 hPa WNW 12.7 km/h 24.1 km/h 52 % 0 mm
15:10 5.7 °C -2.9 °C 999.5 hPa West 7.1 km/h 18.5 km/h 54 % 0 mm
15:15 5.7 °C -2.6 °C 999.9 hPa SW 11.4 km/h 22.2 km/h 55 % 0 mm
15:20 5.7 °C -2.4 °C 999.9 hPa WSW 4.7 km/h 9.7 km/h 56 % 0 mm
15:25 5.6 °C -2.3 °C 999.9 hPa NW 10.1 km/h 18.5 km/h 57 % 0 mm
15:30 5.5 °C -2.3 °C 999.9 hPa SW 11.9 km/h 18.5 km/h 57 % 0 mm
15:35 5.5 °C -2.1 °C 999.9 hPa SW 11.3 km/h 16.7 km/h 58 % 0 mm
15:40 5.4 °C -2.2 °C 999.9 hPa West 9.3 km/h 18.5 km/h 58 % 0 mm
15:45 5.3 °C -2.1 °C 999.9 hPa West 11.3 km/h 22.2 km/h 59 % 0 mm
15:51 5.3 °C -2.3 °C 1000.2 hPa WSW 7.6 km/h 33.3 km/h 58 % 0 mm
15:56 5.3 °C -2.1 °C 1000.2 hPa WSW 10.6 km/h 11.1 km/h 59 % 0 mm
16:01 5.3 °C -1.9 °C 1000.2 hPa West 9.3 km/h 20.4 km/h 60 % 0 mm
16:06 5.3 °C -1.9 °C 1000.2 hPa West 16.1 km/h 24.1 km/h 60 % 0 mm
16:11 5.3 °C -1.9 °C 1000.2 hPa WNW 10.9 km/h 25.9 km/h 60 % 0 mm
16:16 5.3 °C -2.1 °C 1000.2 hPa WSW 12.4 km/h 25.9 km/h 59 % 0 mm
16:21 5.3 °C -2.3 °C 1000.2 hPa West 11.1 km/h 18.5 km/h 58 % 0 mm
16:26 5.3 °C -2.3 °C 1000.2 hPa WNW 6.6 km/h 11.1 km/h 58 % 0 mm
16:31 5.3 °C -2.3 °C 1000.2 hPa WNW 6.6 km/h 13 km/h 58 % 0 mm
16:36 5.3 °C -2.3 °C 1000.2 hPa WSW 11.3 km/h 14.8 km/h 58 % 0 mm
16:41 5.2 °C -2.6 °C 1000.2 hPa WSW 9.7 km/h 18.5 km/h 57 % 0 mm
16:46 5.2 °C -2.6 °C 1000.2 hPa SSW 9.7 km/h 16.7 km/h 57 % 0 mm
16:51 5.2 °C -2.7 °C 1000.2 hPa WNW 13.4 km/h 17.7 km/h 57 % 0 mm
16:56 5.2 °C -2.7 °C 1000.2 hPa SW 10.3 km/h 16.1 km/h 57 % 0 mm
17:01 5.2 °C -2.4 °C 1000.2 hPa WNW 2.4 km/h 20.4 km/h 58 % 0 mm
17:06 5.2 °C -2.4 °C 1000.6 hPa WSW 10 km/h 18.5 km/h 58 % 0 mm
17:11 5.1 °C -2.5 °C 1000.6 hPa West 11.6 km/h 18.5 km/h 58 % 0 mm
17:16 5.1 °C -2 °C 1000.6 hPa SW 14.2 km/h 22.5 km/h 60 % 0 mm
17:21 5.1 °C -1.8 °C 1000.6 hPa WSW 10 km/h 18.5 km/h 61 % 0 mm
17:26 5 °C -1.7 °C 1000.6 hPa SW 12.7 km/h 18.5 km/h 62 % 0 mm
17:31 4.9 °C -1.7 °C 1000.6 hPa West 16.3 km/h 20.4 km/h 62 % 0 mm
17:37 4.9 °C -1.8 °C 1000.6 hPa WSW 12.9 km/h 18.5 km/h 62 % 0 mm
17:46 4.9 °C -1.8 °C 1000.6 hPa West 11.4 km/h 17.7 km/h 62 % 0 mm
17:51 4.8 °C -1.6 °C 1000.6 hPa WNW 3.7 km/h 8 km/h 63 % 0 mm
17:55 4.8 °C -1.4 °C 1000.6 hPa West 7.6 km/h 14.8 km/h 64 % 0 mm
17:57 4.8 °C -1.4 °C 1000.6 hPa WSW 10.1 km/h 22.2 km/h 64 % 0 mm
18:01 4.8 °C -1.4 °C 1000.6 hPa NW 9.2 km/h 18.5 km/h 64 % 0 mm
18:06 4.8 °C -1.4 °C 1000.6 hPa West 15.8 km/h 25.9 km/h 64 % 0 mm
18:11 4.8 °C -1.4 °C 1000.6 hPa WNW 7.9 km/h 14.8 km/h 64 % 0 mm
18:16 4.7 °C -1.5 °C 1000.6 hPa WSW 12.4 km/h 20.4 km/h 64 % 0 mm
18:21 4.7 °C -1.6 °C 1000.6 hPa WSW 7.9 km/h 16.7 km/h 64 % 0 mm
18:26 4.7 °C -1.6 °C 1000.6 hPa SSW 10.9 km/h 16.7 km/h 64 % 0 mm
18:31 4.6 °C -1.6 °C 1000.6 hPa WSW 10.1 km/h 20.4 km/h 64 % 0 mm
18:36 4.6 °C -1.7 °C 1000.6 hPa SSW 8 km/h 16.1 km/h 64 % 0 mm
18:41 4.5 °C -1.7 °C 1000.6 hPa West 7.9 km/h 14.8 km/h 64 % 0 mm
18:51 4.4 °C -1.6 °C 1000.6 hPa West 6.1 km/h 16.7 km/h 65 % 0 mm
18:56 4.4 °C -1.6 °C 1000.6 hPa West 8.5 km/h 20.4 km/h 65 % 0 mm
19:01 4.4 °C -1.3 °C 1000.6 hPa SW 10.3 km/h 16.7 km/h 66 % 0 mm
19:03 4.4 °C -1.6 °C 1000.6 hPa WNW 7.2 km/h 13 km/h 65 % 0 mm
19:08 4.4 °C -1.6 °C 1000.9 hPa SW 4.7 km/h 11.3 km/h 65 % 0 mm
19:13 4.4 °C -1.6 °C 1000.9 hPa West 6 km/h 11.1 km/h 65 % 0 mm
19:18 4.4 °C -1.6 °C 1000.9 hPa WSW 6.9 km/h 11.3 km/h 65 % 0 mm
19:24 4.4 °C -1.8 °C 1000.9 hPa West 8.4 km/h 14.8 km/h 64 % 0 mm
19:29 4.4 °C -2.1 °C 1001.2 hPa WSW 10.3 km/h 18.5 km/h 63 % 0 mm
19:34 4.4 °C -2.1 °C 1001.2 hPa West 9.7 km/h 20.9 km/h 63 % 0 mm
19:39 4.4 °C -2.2 °C 1001.2 hPa WNW 11.3 km/h 29 km/h 62 % 0 mm
19:44 4.4 °C -2 °C 1001.2 hPa WNW 11.3 km/h 29 km/h 63 % 0 mm
19:49 4.4 °C -2 °C 1001.2 hPa West 8 km/h 16.1 km/h 63 % 0 mm
19:54 4.4 °C -1.8 °C 1001.2 hPa West 16.1 km/h 22.5 km/h 64 % 0 mm
19:59 4.3 °C -2.1 °C 1001.2 hPa WSW 10.9 km/h 27.4 km/h 63 % 0 mm
20:04 4.3 °C -2.1 °C 1001.2 hPa West 11.3 km/h 27.4 km/h 63 % 0 mm
20:09 4.3 °C -2.1 °C 1001.2 hPa West 14.5 km/h 22.5 km/h 63 % 0 mm
20:14 4.3 °C -2.3 °C 1001.2 hPa West 11.3 km/h 27.4 km/h 62 % 0 mm
20:19 4.3 °C -2.3 °C 1001.2 hPa West 11.3 km/h 24.1 km/h 62 % 0 mm
20:24 4.3 °C -2.3 °C 1001.2 hPa West 14.5 km/h 32.2 km/h 62 % 0 mm
20:29 4.3 °C -2.4 °C 1001.2 hPa WSW 12.9 km/h 27.4 km/h 62 % 0 mm
20:34 4.3 °C -2.4 °C 1001.2 hPa WSW 14.2 km/h 20.4 km/h 62 % 0 mm
20:39 4.2 °C -2.4 °C 1001.2 hPa West 12.9 km/h 22.5 km/h 62 % 0 mm
20:44 4.2 °C -2.3 °C 1001.2 hPa West 11.3 km/h 20.9 km/h 63 % 0 mm
20:49 4.1 °C -2.3 °C 1001.2 hPa West 12.9 km/h 20.9 km/h 63 % 0 mm
20:54 4.1 °C -2.4 °C 1001.2 hPa West 11.3 km/h 24.1 km/h 63 % 0 mm
20:59 4 °C -2.4 °C 1001.2 hPa SSW 5.8 km/h 18.5 km/h 63 % 0 mm
21:04 3.9 °C -2.4 °C 1001.2 hPa West 10.6 km/h 22.2 km/h 63 % 0 mm
21:09 3.9 °C -2.4 °C 1001.2 hPa WSW 12.7 km/h 22.2 km/h 63 % 0 mm
21:14 3.9 °C -2.4 °C 1001.6 hPa SW 14.5 km/h 20.4 km/h 63 % 0 mm
21:19 4 °C -2.2 °C 1001.2 hPa SW 12.6 km/h 18.5 km/h 64 % 0 mm
21:24 4 °C -2.4 °C 1001.6 hPa WNW 11.4 km/h 20.4 km/h 63 % 0 mm
21:29 4 °C -2.2 °C 1001.2 hPa WSW 14.3 km/h 20.4 km/h 64 % 0 mm
21:34 4.1 °C -1.9 °C 1001.2 hPa WSW 14.3 km/h 20.4 km/h 65 % 0 mm
21:39 4 °C -2 °C 1001.2 hPa West 7.9 km/h 13 km/h 65 % 0 mm
21:44 4 °C -2 °C 1001.2 hPa WSW 4.7 km/h 9.7 km/h 65 % 0 mm
21:49 3.9 °C -1.9 °C 1001.2 hPa West 7.7 km/h 18.5 km/h 66 % 0 mm
21:54 3.8 °C -2 °C 1001.2 hPa WNW 13.5 km/h 24.1 km/h 66 % 0 mm
21:59 3.7 °C -1.8 °C 1001.6 hPa WSW 15.3 km/h 22.2 km/h 67 % 0 mm
22:04 3.7 °C -1.9 °C 1001.2 hPa SW 9 km/h 14.8 km/h 67 % 0 mm
22:09 3.6 °C -2.2 °C 1001.2 hPa SW 9.5 km/h 16.7 km/h 66 % 0 mm
22:16 3.5 °C -2.1 °C 1001.6 hPa West 9 km/h 18.5 km/h 67 % 0 mm
22:22 3.4 °C -2.1 °C 1001.2 hPa WSW 10.5 km/h 18.5 km/h 67 % 0 mm
22:24 3.4 °C -1.9 °C 1001.6 hPa WNW 8.5 km/h 20.4 km/h 68 % 0 mm
22:27 3.4 °C -1.9 °C 1001.6 hPa West 12.4 km/h 18.5 km/h 68 % 0 mm
22:32 3.4 °C -2.2 °C 1001.6 hPa WSW 6.9 km/h 24.1 km/h 67 % 0 mm
22:37 3.4 °C -2.2 °C 1001.6 hPa WSW 13.4 km/h 27.8 km/h 67 % 0 mm
22:43 3.3 °C -2.2 °C 1001.6 hPa West 14.3 km/h 19.3 km/h 67 % 0 mm
22:48 3.3 °C -2.2 °C 1001.6 hPa WSW 13 km/h 18.5 km/h 67 % 0 mm
22:53 3.3 °C -2.2 °C 1001.6 hPa WSW 9.5 km/h 16.7 km/h 67 % 0 mm
22:58 3.3 °C -2.2 °C 1001.6 hPa WSW 12.6 km/h 24.1 km/h 67 % 0 mm
23:03 3.4 °C -2.2 °C 1001.6 hPa West 7.6 km/h 22.2 km/h 67 % 0 mm
23:08 3.4 °C -2.2 °C 1001.9 hPa SW 10.8 km/h 16.7 km/h 67 % 0 mm
23:13 3.4 °C -2.3 °C 1001.9 hPa WSW 11.4 km/h 18.5 km/h 66 % 0 mm
23:18 3.4 °C -2.3 °C 1001.9 hPa SW 11.6 km/h 32.2 km/h 66 % 0 mm
23:23 3.5 °C -2.3 °C 1001.9 hPa WSW 9.2 km/h 18.5 km/h 66 % 0 mm
23:28 3.5 °C -2.4 °C 1001.6 hPa WSW 17.1 km/h 25.9 km/h 65 % 0 mm
23:33 3.5 °C -2.4 °C 1001.6 hPa WSW 16.6 km/h 20.4 km/h 65 % 0 mm
23:38 3.5 °C -2.4 °C 1001.6 hPa West 12.9 km/h 20.4 km/h 65 % 0 mm
23:43 3.4 °C -2.7 °C 1001.6 hPa WSW 18.5 km/h 29.6 km/h 64 % 0 mm
23:48 3.4 °C -2.9 °C 1001.6 hPa WSW 14.2 km/h 32.2 km/h 63 % 0 mm
23:53 3.4 °C -2.9 °C 1001.6 hPa WSW 12.4 km/h 16.7 km/h 63 % 0 mm
23:58 3.4 °C -2.7 °C 1001.6 hPa SW 14 km/h 25.7 km/h 64 % 0 mm
Crab Meadow Weather
Compliments of Weather Underground - 3 mb

Script developed by  Jim McMurry - jmcmurry@mwt.net Adapted for the template by  Wim van der Kuil - Leuven-Template.eu

Weather Terms: Flood Warning - General or areal flooding of streets, low-lying areas, urban storm drains, creeks and small streams is occurring, imminent, or highly likely. Flood warnings are issued for flooding that occurs more than 6 hours after the excessive rainfall. These warnings are issued on a county by county basis by the local Weather Forecast Office in Upton and are generally in effect for 6 to 12 hours.